Weather observations for the past three days for
Russellville Regional Airport
Imperial (Metric)
Date Time (cdt) Wind (mph) Vis. (mi.) Weather Sky Cond. Temperature (ºF) Relative Humidity Wind Chill (°F) Heat Index (°F) Pressure Precipitation (in)
Air Dwpt 6 hour altimeter (in) sea level (mb) 1 hr 3 hr 6 hr
Max. Min.
07 22:53 Calm 10.00 Fair CLR 54 48 80% 29.99 1015.0
07 21:53 Calm 10.00 Fair CLR 55.9 48 75% 29.98 1014.9
07 20:53 Calm 10.00 Fair CLR 59 50 72% 29.97 1014.6
07 19:53 Calm 10.00 Fair CLR 64 45 50% 29.96 1013.9
07 18:53 SW 5 10.00 Fair CLR 70 44.1 73 66.9 39% 29.96 1014.0
07 17:53 W 7 10.00 Fair CLR 71.1 42.1 35% 29.96 1014.1
07 16:53 Vrbl 5 10.00 A Few Clouds FEW065 72 43 35% 29.97 1014.3
07 15:53 W 10 10.00 A Few Clouds FEW065 71.1 42.1 35% 29.98 1014.7
07 14:53 SW 9 10.00 A Few Clouds FEW065 70 42.1 37% 30 1015.5
07 13:53 W 7 G 18 10.00 Partly Cloudy SCT060 69.1 42.1 38% 30.03 1016.3
07 12:53 Calm 10.00 Fair CLR 66.9 37.9 68 48.9 35% 30.05 1017.1
07 11:53 Calm 10.00 Fair CLR 64.9 42.1 43% 30.08 1018.1
07 10:53 Vrbl 3 10.00 Fair CLR 63 43 48% 30.1 1018.7
07 09:53 Vrbl 5 10.00 Fair CLR 60.1 43 53% 30.1 1018.9
07 08:53 W 3 10.00 Fair CLR 55.9 42.1 60% 30.1 1018.8
07 07:53 NW 5 10.00 Fair CLR 52 42.1 69% 30.09 1018.7
07 06:53 NW 3 10.00 Fair CLR 48.9 43 52 46.9 80% 30.08 1018.1
07 05:53 NW 5 10.00 Fair CLR 48 43 83% 47 30.06 1017.6
07 04:53 NW 6 10.00 Fair CLR 48 44.1 86% 46 30.06 1017.3
07 03:53 NW 5 10.00 Fair CLR 48.9 45 86% 48 30.04 1016.7
07 02:53 NW 5 10.00 Fair CLR 51.1 46 83% 30.04 1016.8
07 01:53 NW 3 10.00 Fair CLR 52 46 80% 30.04 1016.8
07 00:53 Calm 10.00 Fair CLR 50 46 60.1 50 86% 30.04 1016.8
06 23:53 Calm 10.00 Fair CLR 52 46.9 83% 30.03 1016.6
06 22:53 Calm 10.00 A Few Clouds FEW060 52 46.9 83% 30.03 1016.5
06 21:53 Calm 10.00 Mostly Cloudy BKN060 BKN120 54 46 75% 30.02 1016.0
06 20:53 N 6 10.00 Overcast OVC110 59 44.1 58% 30 1015.4
06 19:53 Calm 10.00 Mostly Cloudy BKN044 BKN110 57 50 78% 29.98 1014.9
06 18:53 Calm 10.00 Overcast OVC110 60.1 48.9 64 55.9 67% 29.98 1014.7
06 17:53 NE 8 10.00 A Few Clouds FEW039 63 46 54% 29.97 1014.3
06 16:53 NE 7 10.00 Partly Cloudy FEW035 SCT050 62.1 45 54% 29.95 1013.7
06 15:53 NE 5 10.00 Overcast BKN046 OVC120 59 45 60% 29.95 1013.9
06 14:53 NE 5 10.00 Partly Cloudy SCT030 57.9 46 65% 29.97 1014.5
06 13:53 Vrbl 3 10.00 Partly Cloudy FEW046 SCT100 SCT120 57 46.9 69% 30.01 1015.9
06 12:53 NE 3 10.00 Mostly Cloudy FEW037 SCT080 BKN110 57 45 57.9 52 64% 30.01 1015.8 0.05
06 11:53 E 3 10.00 Partly Cloudy FEW033 SCT046 SCT080 55.9 44.1 65% 30.03 1016.4 0.05
06 10:53 NE 7 10.00 Mostly Cloudy SCT045 BKN090 57 42.1 58% 30 1015.2
06 09:53 N 7 10.00 Overcast OVC043 55 42.1 62% 30.03 1016.3
06 08:53 NE 6 10.00 Overcast OVC037 53.1 42.1 66% 29.99 1015.2
06 07:53 N 7 10.00 Overcast OVC035 53.1 43 69% 29.99 1015.0
06 06:53 N 3 10.00 Overcast FEW018 OVC031 52 45 55.9 52 77% 29.94 1013.2 0.02
06 05:53 N 7 10.00 Overcast OVC016 52 45 77% 29.91 1012.4
06 04:53 NE 5 10.00 Overcast OVC014 52 45 77% 29.89 1011.5
06 03:53 NE 8 10.00 Overcast BKN015 OVC021 52 46 80% 29.87 1010.9 0.01 0.02
06 02:53 N 8 G 21 10.00 Light Rain OVC016 53.1 46.9 80% 29.86 1010.5 0.01
06 01:53 N 12 10.00 Overcast OVC017 54 46.9 77% 29.83 1009.4
06 00:53 N 8 10.00 Overcast OVC017 55.9 48 72 55.9 75% 29.81 1009.0 0.02
05 23:53 N 10 10.00 Overcast OVC017 57.9 51.1 78% 29.79 1008.0
05 22:53 N 6 10.00 Overcast BKN015 BKN019 OVC026 61 55 81% 29.75 1006.7 0.02
05 21:53 NE 10 10.00 Overcast BKN012 OVC047 66.9 59 76% 29.71 1005.4
05 20:53 SE 3 10.00 A Few Clouds FEW060 71.1 66 84% 29.68 1004.5
05 19:53 Calm 10.00 Mostly Cloudy BKN037 BKN060 72 66 82% 29.68 1004.4
05 18:53 Calm 10.00 Fair CLR 73.9 66 75 72 76% 29.66 1003.7
05 17:53 Vrbl 6 10.00 Mostly Cloudy SCT019 BKN060 73.9 66 76% 29.67 1004.1
05 16:53 Vrbl 6 10.00 Mostly Cloudy SCT019 BKN060 75 66 74% 76 29.66 1003.6
05 15:53 Vrbl 6 10.00 Mostly Cloudy BKN055 73 66 79% 29.68 1004.2
05 14:53 S 13 G 21 10.00 Overcast FEW019 SCT025 OVC055 73 64.9 76% 29.68 1004.4
05 13:53 S 10 G 17 10.00 Overcast SCT019 SCT025 OVC060 73.9 64.9 74% 29.69 1004.6
05 12:53 S 10 G 18 10.00 Overcast OVC019 72 63 73 63 73% 29.69 1004.8 0.03
05 11:53 S 7 10.00 Overcast OVC018 71.1 64 79% 29.7 1005.0
05 10:53 Vrbl 5 10.00 Overcast OVC014 69.1 64 84% 29.71 1005.5
05 09:53 Vrbl 6 10.00 Overcast OVC006 66.9 63 87% 29.72 1005.8 0.03
05 08:53 Calm 4.00 Fog/Mist OVC007 64 62.1 93% 29.73 1006.2 0.01
05 07:53 E 5 2.00 Light Rain Fog/Mist FEW009 OVC017 63 60.1 90% 29.74 1006.3 0.02
05 06:53 E 5 6.00 Fog/Mist OVC022 63 59 69.1 63 87% 29.71 1005.4
05 05:53 Vrbl 3 10.00 Overcast OVC023 64 59 84% 29.69 1004.7
05 04:53 Calm 10.00 Overcast BKN028 OVC042 64 59 84% 29.67 1003.9
05 03:53 Vrbl 3 10.00 Thunderstorm in Vicinity OVC038 66.9 55 66% 29.67 1004.0
05 02:53 Vrbl 3 10.00 Mostly Cloudy BKN048 66 54 65% 29.7 1005.0
05 01:53 Calm 10.00 Overcast OVC050 66 54 65% 29.73 1005.9
05 00:53 Calm 10.00 Overcast OVC050 68 53.1 73.9 64.9 59% 29.74 1006.4
04 23:53 E 3 10.00 Fair CLR 66 53.1 63% 29.75 1006.7
Date Time (cdt) Wind (mph) Vis. (mi.) Weather Sky Cond. Air Dwpt Max. Min. Relative Humidity Wind Chill (°F) Heat Index (°F) altimeter (in) sea level (mb) 1 hr 3 hr 6 hr
6 hour
Temperature (ºF) Pressure Precipitation (in)